Location: PSU-Greenbush Astrophysical Observatory
(37.5140°N, 94.9880°W)
Time: 15:49:33
(UTC-05:00)

BEESAT - Pass Details

Date: 23 February 2020
Orbit: 700 x 709 km, 98.6° (Epoch: 05 April)

Event Time Altitude Azimuth Distance (km) Brightness Sun altitude
Rises 03:45:14 0° 111° (ESE) 3,091 ? -38.9°
Reaches altitude 10° 03:49:29 10° 74° (ENE) 2,177 ? -38.1°
Maximum altitude 03:50:30 11° 61° (ENE) 2,134 ? -37.9°
Drops below altitude 10° 03:51:30 10° 49° (NE) 2,178 ? -37.8°
Sets 03:55:46 0° 12° (NNE) 3,100 ? -37.0°
